EW4427 Weather Reports


Display with metric or nautical units.
time (UTC)temp
F
wind
direction
speed
MPH
gust
MPH
rain 1hr
in
rain 24hr
in
rain mn
in
humidity
%
barometer
mb
20240622091044 65 0 0.0 0.0 0.00 0.03 0.03 95 1015.7
20240622090547 65 0 0.0 0.0 0.00 0.03 0.03 95 1015.8
20240622090058 65 0 0.0 0.0 0.00 0.03 0.03 95 1015.9
20240622085545 65 0 0.0 0.0 0.00 0.03 0.03 95 1015.9
20240622085045 65 0 0.0 0.0 0.00 0.03 0.03 95 1016.0
20240622084557 65 0 0.0 1.0 0.00 0.03 0.03 95 1016.1
20240622084049 65 0 0.0 1.0 0.00 0.03 0.03 95 1016.2
20240622083547 65 0 0.0 1.0 0.00 0.03 0.03 95 1016.2
20240622083057 64 0 0.0 1.0 0.00 0.03 0.03 95 1016.2
20240622082545 64 0 0.0 1.0 0.00 0.03 0.03 95 1016.3
20240622082048 64 0 0.0 2.0 0.00 0.03 0.03 95 1016.5
20240622081551 64 0 0.0 2.0 0.00 0.03 0.03 95 1016.6
20240622081045 64 15 0.0 1.0 0.00 0.03 0.03 95 1016.7
20240622080548 64 0 0.0 0.0 0.01 0.03 0.03 95 1016.5
20240622080057 64 0 0.0 2.0 0.01 0.03 0.03 95 1016.5
20240622075546 64 0 0.0 2.0 0.01 0.03 0.03 95 1016.5
20240622075045 64 0 0.0 4.0 0.01 0.03 0.03 95 1016.6
20240622074547 64 188 1.0 4.0 0.01 0.03 0.03 95 1016.3
20240622074046 64 184 1.0 3.0 0.01 0.03 0.03 95 1016.2
20240622073545 64 0 0.0 4.0 0.02 0.03 0.03 95 1016.0
20240622073050 64 0 1.0 4.0 0.02 0.03 0.03 95 1016.1
20240622072545 64 184 0.0 1.0 0.03 0.03 0.03 94 1016.5
20240622072045 64 0 0.0 1.0 0.03 0.03 0.03 94 1016.4
20240622071556 64 92 0.0 0.0 0.03 0.03 0.03 94 1016.3
20240622071044 64 0 0.0 1.0 0.03 0.03 0.03 94 1016.4
20240622070544 64 0 0.0 2.0 0.02 0.02 0.02 94 1016.6
20240622070049 64 0 0.0 5.0 0.02 0.02 0.02 94 1016.7
20240622065545 64 128 1.0 6.0 0.02 0.02 0.02 94 1016.9
20240622065044 64 171 2.0 7.0 0.02 0.02 0.02 94 1017.1
20240622064547 64 188 3.0 9.0 0.02 0.02 0.02 94 1017.3
20240622064044 64 183 5.0 9.0 0.02 0.02 0.02 95 1017.5
20240622063542 64 184 5.0 9.0 0.01 0.01 0.01 95 1017.5
20240622063103 63 180 2.0 7.0 0.01 0.01 0.01 94 1017.8
20240622062546 63 0 0.0 2.0 0.00 0.00 0.00 94 1017.6
20240622062045 63 0 0.0 0.0 0.00 0.00 0.00 94 1017.5
20240622061607 63 0 0.0 1.0 0.00 0.00 0.00 94 1017.4
20240622061045 63 0 0.0 1.0 0.00 0.00 0.00 94 1017.3
20240622060544 63 0 0.0 1.0 0.00 0.00 0.00 94 1017.3
20240622060059 63 0 0.0 2.0 0.00 0.00 0.00 94 1017.4
20240622055549 63 0 0.0 2.0 0.00 0.00 0.00 93 1017.4
20240622055046 63 0 0.0 3.0 0.00 0.00 0.00 93 1017.5
20240622054555 63 0 0.0 3.0 0.00 0.00 0.00 93 1017.5
20240622054044 63 0 0.0 4.0 0.00 0.00 0.00 93 1017.5
20240622053545 63 0 1.0 4.0 0.00 0.00 0.00 93 1017.5
20240622053057 63 0 0.0 3.0 0.00 0.00 0.00 93 1017.5
20240622052546 63 0 0.0 3.0 0.00 0.00 0.00 93 1017.6
20240622052044 63 0 0.0 4.0 0.00 0.00 0.00 93 1017.7
20240622051555 63 13 1.0 6.0 0.00 0.00 0.00 93 1017.6
20240622051046 63 19 1.0 6.0 0.00 0.00 0.00 93 1017.5
20240622050546 64 0 1.0 5.0 0.00 0.00 0.00 93 1017.5
20240622050055 64 36 0.0 3.0 0.00 0.00 0.00 93 1017.7
20240622045547 64 0 0.0 8.0 0.00 0.00 0.00 93 1017.9
20240622045045 64 0 0.0 8.0 0.00 0.00 0.00 93 1018.0
20240622044556 64 355 1.0 5.0 0.00 0.00 0.00 92 1018.1
20240622044043 64 25 1.0 5.0 0.00 0.00 0.00 92 1018.2
20240622043545 64 17 1.0 4.0 0.00 0.00 0.00 92 1018.3
20240622043051 64 15 1.0 4.0 0.00 0.00 0.00 92 1018.2
20240622042544 64 348 0.0 5.0 0.00 0.00 0.00 92 1018.2
20240622042044 64 19 0.0 5.0 0.00 0.00 0.00 92 1018.2
20240622041552 64 360 1.0 5.0 0.00 0.00 0.00 92 1018.2
20240622041044 64 0 1.0 5.0 0.00 0.00 0.00 92 1018.2
20240622040550 64 19 2.0 5.0 0.00 0.00 0.00 91 1018.2
20240622040049 64 0 0.0 4.0 0.00 0.00 0.00 91 1018.4
20240622035546 64 19 1.0 4.0 0.00 0.00 0.00 91 1018.4
20240622035046 64 18 0.0 4.0 0.00 0.00 0.00 91 1018.4
20240622034557 64 31 1.0 6.0 0.00 0.00 0.00 91 1018.2
20240622034046 64 355 1.0 7.0 0.00 0.00 0.00 91 1018.2
20240622033548 64 348 2.0 7.0 0.00 0.00 0.00 90 1018.2
20240622033055 65 20 1.0 7.0 0.00 0.00 0.00 90 1018.4
20240622032545 65 32 1.0 7.0 0.00 0.00 0.00 89 1018.3
20240622032057 65 5 2.0 6.0 0.00 0.00 0.00 89 1018.4
20240622031558 65 31 2.0 6.0 0.00 0.00 0.00 89 1018.4
20240622031042 65 348 2.0 6.0 0.00 0.00 0.00 88 1018.4
20240622030544 66 15 2.0 7.0 0.00 0.00 0.00 88 1018.5
20240622030049 66 24 2.0 8.0 0.00 0.00 0.00 88 1018.5
20240622025546 66 22 2.0 8.0 0.00 0.00 0.00 88 1018.5
20240622025043 67 360 1.0 4.0 0.00 0.00 0.00 88 1018.5
20240622024551 67 0 1.0 4.0 0.00 0.00 0.00 88 1018.5
20240622024046 67 17 0.0 8.0 0.00 0.00 0.00 88 1018.6
20240622023542 67 0 1.0 8.0 0.00 0.00 0.00 88 1018.5
20240622023054 67 16 1.0 5.0 0.00 0.00 0.00 87 1018.5
20240622022543 67 24 1.0 5.0 0.00 0.00 0.00 87 1018.5
20240622022043 68 5 2.0 5.0 0.00 0.00 0.00 87 1018.6
20240622021553 68 308 0.0 3.0 0.00 0.00 0.00 86 1018.3
20240622021044 68 360 0.0 3.0 0.00 0.00 0.00 86 1018.1
20240622020542 68 0 0.0 5.0 0.00 0.00 0.00 86 1017.9
20240622020054 68 0 1.0 5.0 0.00 0.00 0.00 86 1018.0
20240622015544 68 15 1.0 4.0 0.00 0.00 0.00 86 1017.9
20240622015048 68 26 1.0 5.0 0.00 0.00 0.00 85 1017.8
20240622014549 68 0 1.0 5.0 0.00 0.00 0.00 85 1018.0
20240622014044 69 59 1.0 4.0 0.00 0.00 0.00 85 1018.0
20240622013543 69 0 1.0 4.0 0.00 0.00 0.00 85 1018.0
20240622013051 69 16 1.0 3.0 0.00 0.00 0.00 85 1018.0
20240622012542 69 0 0.0 2.0 0.00 0.00 0.00 85 1018.0
20240622012045 69 0 0.0 3.0 0.00 0.00 0.00 84 1018.2
20240622011600 69 0 0.0 4.0 0.00 0.00 0.00 84 1018.2
20240622011042 69 0 0.0 4.0 0.00 0.00 0.00 84 1018.1
20240622010542 69 0 0.0 3.0 0.00 0.00 0.00 84 1018.2
20240622010056 69 0 0.0 2.0 0.00 0.00 0.00 84 1018.3
20240622005543 69 0 0.0 2.0 0.00 0.00 0.00 84 1018.3
20240622005042 69 0 0.0 2.0 0.00 0.00 0.00 83 1018.5
20240622004550 69 0 0.0 4.0 0.00 0.00 0.00 83 1018.5
20240622004044 69 0 1.0 5.0 0.00 0.00 0.00 83 1018.6
20240622003544 69 23 0.0 5.0 0.00 0.00 0.00 83 1018.6
20240622003050 70 0 2.0 5.0 0.00 0.00 0.00 83 1018.6
20240622002545 70 15 1.0 4.0 0.00 0.00 0.00 84 1018.6
20240622002044 70 30 0.0 3.0 0.00 0.00 0.00 83 1018.7
20240622001645 70 360 0.0 7.0 0.00 0.00 0.00 83 1018.6
20240622001553 70 360 0.0 7.0 0.00 0.00 0.00 83 1018.6
20240622001047 70 78 1.0 7.0 0.00 0.00 0.00 82 1018.8
20240622000546 70 16 2.0 7.0 0.00 0.00 0.00 82 1018.7
20240622000049 70 0 2.0 7.0 0.00 0.00 0.00 81 1018.6
20240621235546 71 345 3.0 9.0 0.00 0.00 0.00 81 1018.8
20240621235046 71 18 3.0 9.0 0.00 0.00 0.00 80 1018.9
20240621234548 71 29 2.0 8.0 0.00 0.00 0.00 79 1019.1
20240621234046 72 13 3.0 8.0 0.00 0.00 0.00 79 1019.1
20240621233544 72 26 2.0 8.0 0.00 0.00 0.00 79 1018.9
20240621233050 72 24 2.0 8.0 0.00 0.00 0.00 79 1019.0
20240621232546 73 46 2.0 8.0 0.00 0.00 0.00 78 1019.3
20240621232045 73 48 2.0 8.0 0.00 0.00 0.00 77 1019.1
20240621231550 74 46 3.0 9.0 0.00 0.00 0.00 76 1018.8
20240621231046 74 360 3.0 9.0 0.00 0.00 0.00 76 1018.7
20240621230547 75 350 2.0 9.0 0.00 0.00 0.00 75 1018.8
20240621230054 75 344 2.0 9.0 0.00 0.00 0.00 75 1018.9
20240621225546 75 26 3.0 9.0 0.00 0.00 0.00 74 1018.7
20240621225046 76 11 2.0 8.0 0.00 0.00 0.00 73 1018.7
20240621224548 77 42 1.0 9.0 0.00 0.00 0.00 73 1018.6
20240621224046 77 36 2.0 9.0 0.00 0.00 0.00 73 1018.4
20240621223546 77 32 2.0 8.0 0.00 0.00 0.00 73 1018.4
20240621223051 78 0 1.0 10.0 0.00 0.00 0.00 74 1018.2
20240621222546 78 0 2.0 10.0 0.00 0.00 0.00 73 1018.3
20240621222045 78 65 3.0 9.0 0.00 0.00 0.00 73 1018.2
20240621221546 78 46 1.0 7.0 0.00 0.00 0.00 74 1018.1
20240621221046 78 17 2.0 7.0 0.00 0.00 0.00 74 1018.5
20240621220543 78 123 2.0 10.0 0.00 0.00 0.00 73 1018.4
20240621220051 78 351 2.0 10.0 0.00 0.00 0.00 73 1018.5
20240621215546 79 360 3.0 9.0 0.00 0.00 0.00 72 1018.6
20240621215045 79 13 3.0 9.0 0.00 0.00 0.00 72 1018.7
20240621214552 80 58 2.0 8.0 0.00 0.00 0.00 71 1018.7
20240621214045 80 43 2.0 8.0 0.00 0.00 0.00 71 1018.6
20240621213546 81 19 3.0 7.0 0.00 0.00 0.00 71 1018.5
20240621213049 81 21 1.0 7.0 0.00 0.00 0.00 71 1018.4
20240621212546 81 32 2.0 5.0 0.00 0.00 0.00 70 1018.4
20240621212050 82 39 1.0 5.0 0.00 0.00 0.00 70 1018.3
20240621211555 82 0 1.0 9.0 0.00 0.00 0.00 70 1018.4
20240621211048 82 69 3.0 9.0 0.00 0.00 0.00 69 1018.4
20240621210544 83 28 3.0 9.0 0.00 0.00 0.00 69 1018.4
20240621210053 83 22 3.0 9.0 0.00 0.00 0.00 70 1018.4
20240621205546 83 40 1.0 5.0 0.00 0.00 0.00 70 1018.5
20240621205045 83 40 1.0 5.0 0.00 0.00 0.00 70 1018.4
20240621204547 84 53 2.0 6.0 0.00 0.00 0.00 69 1018.5
20240621204043 84 5 2.0 9.0 0.00 0.00 0.00 69 1018.5
20240621203543 85 26 2.0 9.0 0.00 0.00 0.00 67 1018.4
20240621203049 85 65 1.0 8.0 0.00 0.00 0.00 67 1018.7
20240621202543 85 310 2.0 8.0 0.00 0.00 0.00 67 1018.6
20240621202042 86 0 3.0 8.0 0.00 0.00 0.00 66 1018.6
20240621201553 86 32 2.0 5.0 0.00 0.00 0.00 67 1018.6
20240621201044 87 42 1.0 5.0 0.00 0.00 0.00 67 1018.9
20240621200543 87 332 0.0 5.0 0.00 0.00 0.00 67 1018.9
20240621200047 88 360 0.0 5.0 0.00 0.00 0.00 66 1019.1
20240621195544 88 163 0.0 6.0 0.00 0.00 0.00 61 1019.2
20240621195044 88 146 3.0 7.0 0.00 0.00 0.00 64 1019.2
20240621194550 87 180 3.0 7.0 0.00 0.00 0.00 64 1019.2
20240621194044 87 188 0.0 5.0 0.00 0.00 0.00 65 1019.3
20240621193544 87 183 1.0 6.0 0.00 0.00 0.00 63 1019.3
20240621193107 87 191 3.0 6.0 0.00 0.00 0.00 65 1019.4
20240621192545 87 183 2.0 4.0 0.00 0.00 0.00 63 1019.5
20240621192044 86 0 0.0 5.0 0.00 0.00 0.00 67 1019.7
20240621191558 87 180 2.0 5.0 0.00 0.00 0.00 66 1019.7
20240621191042 87 232 0.0 4.0 0.00 0.00 0.00 64 1019.9
20240621190543 87 0 1.0 4.0 0.00 0.00 0.00 66 1019.9
20240621190101 86 176 2.0 4.0 0.00 0.00 0.00 67 1019.9
20240621185544 86 0 0.0 3.0 0.00 0.00 0.00 68 1019.9
20240621185043 86 0 0.0 4.0 0.00 0.00 0.00 68 1020.0
20240621184550 86 168 1.0 4.0 0.00 0.00 0.00 69 1020.0
20240621184045 86 180 1.0 4.0 0.00 0.00 0.00 69 1020.1
20240621183544 85 175 0.0 5.0 0.00 0.00 0.00 67 1020.0
20240621183057 85 176 2.0 5.0 0.00 0.00 0.00 68 1020.3
20240621182544 84 184 1.0 4.0 0.00 0.00 0.00 71 1020.3
20240621182047 83 0 0.0 1.0 0.00 0.00 0.00 70 1020.5
20240621181550 83 0 0.0 3.0 0.00 0.00 0.00 71 1020.7
20240621181044 82 181 0.0 3.0 0.00 0.00 0.00 72 1020.8
20240621180544 82 189 0.0 2.0 0.00 0.00 0.00 72 1021.0
20240621180047 82 184 1.0 2.0 0.00 0.00 0.00 72 1021.0
20240621175543 81 184 0.0 2.0 0.00 0.00 0.00 73 1021.1
20240621175044 81 200 0.0 4.0 0.00 0.00 0.00 73 1021.2
20240621174545 81 171 0.0 4.0 0.00 0.00 0.00 73 1021.1
20240621174047 80 184 1.0 4.0 0.00 0.00 0.00 73 1021.2
20240621173544 79 0 0.0 2.0 0.00 0.00 0.00 75 1021.3
20240621173049 79 0 0.0 2.0 0.00 0.00 0.00 77 1021.3
20240621172545 79 0 0.0 2.0 0.00 0.00 0.00 76 1021.4
20240621172044 78 195 0.0 2.0 0.00 0.00 0.00 77 1021.5
20240621171556 78 186 0.0 2.0 0.00 0.00 0.00 77 1021.5
20240621171044 78 0 1.0 3.0 0.00 0.00 0.00 77 1021.5
20240621170545 77 0 0.0 4.0 0.00 0.00 0.00 78 1021.7
20240621170046 77 0 1.0 4.0 0.00 0.00 0.00 79 1021.8
20240621165544 76 0 0.0 2.0 0.00 0.00 0.00 80 1021.9
20240621165044 76 0 0.0 2.0 0.00 0.00 0.00 80 1022.1
20240621164602 76 183 0.0 2.0 0.00 0.00 0.00 81 1022.2
20240621164044 76 0 0.0 2.0 0.00 0.00 0.00 81 1022.2
20240621163544 75 188 0.0 2.0 0.00 0.00 0.00 81 1022.2
20240621163055 75 188 0.0 3.0 0.00 0.00 0.00 81 1022.2
20240621162547 75 188 0.0 3.0 0.00 0.00 0.00 81 1022.4
20240621162043 75 0 1.0 3.0 0.00 0.00 0.00 81 1022.3
20240621161547 74 0 0.0 3.0 0.00 0.00 0.00 82 1022.4
20240621161044 74 172 1.0 4.0 0.00 0.00 0.00 82 1022.4
20240621160545 74 0 1.0 4.0 0.00 0.00 0.00 82 1022.4
20240621160047 74 148 0.0 6.0 0.00 0.00 0.00 82 1022.5
20240621155544 74 157 0.0 6.0 0.00 0.00 0.00 83 1022.5
20240621155045 73 186 2.0 6.0 0.00 0.00 0.00 83 1022.5
20240621154546 73 182 1.0 4.0 0.00 0.00 0.00 83 1022.6
20240621154044 73 186 0.0 4.0 0.00 0.00 0.00 83 1022.5
20240621153545 73 0 1.0 3.0 0.00 0.00 0.00 83 1022.5
20240621153054 72 172 0.0 3.0 0.00 0.00 0.00 84 1022.5
20240621152545 72 0 0.0 2.0 0.00 0.00 0.00 84 1022.6
20240621152044 72 181 0.0 3.0 0.00 0.00 0.00 84 1022.6
20240621151557 72 0 0.0 5.0 0.00 0.00 0.00 84 1022.7
20240621151049 72 180 1.0 5.0 0.00 0.00 0.00 83 1022.8
20240621150545 71 190 1.0 4.0 0.00 0.00 0.00 84 1022.9
20240621150054 71 224 1.0 4.0 0.00 0.00 0.00 84 1022.8
20240621145544 71 181 1.0 4.0 0.00 0.00 0.00 84 1023.0
20240621145048 71 187 1.0 4.0 0.00 0.00 0.00 84 1023.0
20240621144550 70 188 0.0 4.0 0.00 0.00 0.00 85 1023.0
20240621144046 70 186 0.0 4.0 0.00 0.00 0.00 85 1023.0
20240621143544 70 0 0.0 1.0 0.00 0.00 0.00 83 1023.1
20240621143054 70 157 0.0 1.0 0.00 0.00 0.00 83 1023.1
20240621142544 70 0 0.0 1.0 0.00 0.00 0.00 83 1023.2
20240621142047 70 0 0.0 4.0 0.00 0.00 0.00 84 1023.2
20240621141553 70 0 0.0 4.0 0.00 0.00 0.00 84 1023.2
20240621141044 69 182 1.0 3.0 0.00 0.00 0.00 85 1023.2
20240621140543 69 177 0.0 3.0 0.00 0.00 0.00 86 1023.3
20240621140102 68 188 0.0 3.0 0.00 0.00 0.00 86 1023.2
20240621135548 68 0 0.0 3.0 0.00 0.01 0.00 85 1023.2
20240621135045 67 0 0.0 2.0 0.00 0.01 0.00 86 1023.3
20240621134600 67 0 0.0 3.0 0.00 0.01 0.00 85 1023.4
20240621134044 67 101 0.0 3.0 0.00 0.01 0.00 86 1023.5
20240621133545 67 23 0.0 3.0 0.00 0.01 0.00 86 1023.4
20240621133056 67 0 0.0 2.0 0.00 0.01 0.00 85 1023.4
20240621132542 66 132 0.0 1.0 0.00 0.01 0.00 86 1023.5
20240621132045 66 123 0.0 2.0 0.00 0.01 0.00 85 1023.5
20240621131600 66 0 0.0 2.0 0.00 0.01 0.00 85 1023.5
20240621131044 66 123 0.0 2.0 0.00 0.01 0.00 85 1023.6
20240621130547 66 0 0.0 2.0 0.00 0.01 0.00 86 1023.5
20240621130048 66 5 0.0 2.0 0.00 0.01 0.00 86 1023.5
20240621125545 66 0 0.0 2.0 0.00 0.01 0.00 86 1023.5
20240621125044 65 0 0.0 2.0 0.00 0.01 0.00 86 1023.5
20240621124603 65 0 0.0 4.0 0.00 0.01 0.00 86 1023.5
20240621124044 65 0 0.0 4.0 0.00 0.01 0.00 86 1023.6
20240621123544 65 0 0.0 3.0 0.00 0.01 0.00 85 1023.5
20240621123050 65 13 1.0 3.0 0.00 0.01 0.00 85 1023.5
20240621122544 65 17 0.0 3.0 0.00 0.01 0.00 86 1023.6
20240621122044 64 0 1.0 3.0 0.00 0.01 0.00 86 1023.6
20240621121552 64 0 0.0 3.0 0.00 0.01 0.00 86 1023.7
20240621121044 64 5 0.0 3.0 0.00 0.01 0.00 85 1023.6
20240621120545 64 30 0.0 4.0 0.00 0.01 0.00 86 1023.7
20240621120053 64 0 0.0 4.0 0.00 0.01 0.00 86 1023.7
20240621115545 64 16 1.0 5.0 0.00 0.01 0.00 86 1023.8
20240621115044 64 30 0.0 5.0 0.00 0.01 0.00 86 1023.9
20240621114556 64 17 0.0 2.0 0.00 0.01 0.00 87 1023.7
20240621114051 64 0 0.0 2.0 0.00 0.01 0.00 87 1023.9
20240621113544 64 0 0.0 1.0 0.00 0.01 0.00 87 1023.7
20240621113051 63 0 0.0 3.0 0.00 0.01 0.00 87 1023.7
20240621112547 63 0 0.0 3.0 0.00 0.01 0.00 87 1023.7
20240621112047 63 0 0.0 2.0 0.00 0.01 0.00 87 1023.8
20240621111552 63 0 0.0 2.0 0.00 0.01 0.00 87 1023.7
20240621111044 63 0 0.0 2.0 0.00 0.01 0.00 87 1023.9
20240621110546 63 0 0.0 2.0 0.00 0.01 0.00 87 1023.8
20240621110053 63 337 0.0 2.0 0.00 0.01 0.00 87 1023.7
20240621105545 63 0 0.0 1.0 0.00 0.01 0.00 87 1023.8
20240621105044 63 0 0.0 1.0 0.00 0.01 0.00 87 1023.6
20240621104551 63 0 0.0 1.0 0.00 0.01 0.00 87 1023.5
20240621104044 63 349 0.0 2.0 0.00 0.01 0.00 87 1023.7
20240621103545 63 0 0.0 2.0 0.00 0.01 0.00 87 1023.3
20240621103048 63 0 0.0 2.0 0.00 0.01 0.00 86 1023.3
20240621102544 63 0 0.0 0.0 0.00 0.01 0.00 86 1023.3
20240621102044 63 0 0.0 1.0 0.00 0.01 0.00 86 1023.2
20240621101551 63 0 0.0 1.0 0.00 0.01 0.00 86 1023.2
20240621101044 63 321 0.0 1.0 0.00 0.01 0.00 86 1023.2
20240621100544 63 0 0.0 1.0 0.00 0.01 0.00 86 1023.1
20240621100046 63 321 0.0 1.0 0.00 0.01 0.00 86 1023.2
20240621095544 63 0 0.0 0.0 0.00 0.01 0.00 85 1023.1
20240621095044 63 0 0.0 0.0 0.00 0.01 0.00 85 1023.1
20240621094551 63 0 0.0 0.0 0.00 0.01 0.00 86 1023.2
20240621094044 63 0 0.0 0.0 0.00 0.01 0.00 86 1023.2
20240621093544 63 0 0.0 1.0 0.00 0.01 0.00 86 1023.1
20240621093048 63 0 0.0 1.0 0.00 0.01 0.00 86 1023.2
20240621092544 63 0 0.0 1.0 0.00 0.01 0.00 86 1023.4
20240621092044 63 0 0.0 1.0 0.00 0.01 0.00 86 1023.2
20240621091548 63 0 0.0 1.0 0.00 0.01 0.00 85 1023.3